Dewpoint
55 60 63 65 65 62 61 62 62 63 63 63 64 65 66 66 66 66 65 63 62 61 62 62 61 62 62 63 63 63 63 62 61 60 62 59 59 58 56 55 54 52 51
54 55 56 59 62 64 64 63 63 62 62 62 63 63 64 65 65 65 63 62 60 59 58 59 59 60 60 60 62 62 62 62 62 59 60 59 58 54 54 52 52 52 51
55 55 55 55 56 59 62 62 62 63 62 61 62 62 63 64 64 64 61 60 59 57 57 57 56 57 57 59 59 61 62 62 62 61 59 59 55 53 52 52 51 50 51
55 54 54 55 55 56 56 59 61 61 60 60 61 62 62 62 62 61 59 59 57 57 55 54 54 55 56 59 58 57 59 59 60 60 60 58 55 52 52 49 48 49 49
55 55 55 56 56 56 55 56 57 60 60 59 59 60 61 60 59 59 57 56 57 55 54 53 53 55 55 57 55 56 57 58 58 59 59 58 53 51 49 50 48 48 48
53 53 55 56 56 57 57 56 56 55 58 60 59 58 58 59 54 55 57 57 55 54 53 53 55 55 54 54 52 52 56 57 57 57 58 57 56 53 51 49 48 47 45
51 52 54 55 54 55 57 57 56 55 55 56 58 59 59 59 53 52 53 55 54 53 53 54 53 51 54 57 54 52 52 51 54 59 57 57 58 56 53 50 49 48 48
50 50 51 53 53 54 54 55 55 56 55 55 55 57 59 59 51 50 52 57 56 55 54 54 55 55 55 55 54 54 55 56 57 57 58 58 59 59 54 53 51 49 47
47 49 49 48 49 51 51 52 54 55 55 55 55 55 56 58 50 48 52 58 58 56 55 55 55 55 50 47 55 54 54 55 52 50 51 50 48 49 53 53 50 48 46
42 45 49 50 50 49 48 50 51 51 52 53 54 54 53 55 50 48 51 56 56 55 56 55 49 53 48 45 55 55 55 55 55 54 56 55 52 52 50 54 52 50 48
39 43 45 47 50 50 51 50 49 48 47 49 50 50 50 50 50 46 46 53 54 55 54 54 54 46 45 44 47 56 54 56 53 56 57 58 57 56 54 55 53 52 50
39 40 40 42 44 44 46 45 46 47 47 45 45 46 46 48 45 44 42 45 48 52 53 54 55 46 45 44 45 47 45 50 57 56 55 56 56 57 55 57 55 55 54
39 39 41 42 42 43 43 44 44 43 43 43 43 43 43 44 45 43 42 42 42 47 49 50 49 46 45 46 44 44 44 52 55 54 55 56 56 58 58 57 57 57 56
38 39 39 39 40 40 40 40 39 39 39 40 40 40 41 43 44 45 45 46 44 45 46 49 48 48 47 50 50 48 51 53 53 54 55 56 58 59 59 58 57 55 53
39 39 39 39 39 39 39 39 39 40 39 39 40 40 40 41 42 43 43 45 46 45 47 48 49 50 51 52 53 53 51 52 52 55 56 56 57 57 57 58 57 55 51
38 38 39 40 40 40 40 40 40 39 39 39 39 40 42 40 39 39 40 40 40 41 46 47 48 49 49 49 51 51 52 51 52 53 55 55 56 56 57 57 57 55 53
38 38 38 39 39 38 39 39 39 40 39 39 38 38 39 40 39 38 38 38 38 39 44 46 47 48 48 49 50 51 51 52 52 52 53 55 55 56 54 56 56 55 53
37 37 38 37 38 39 39 39 39 39 39 39 39 38 38 38 38 38 38 38 42 40 44 44 44 46 48 48 49 51 52 53 52 52 53 54 54 54 55 54 55 55 53
36 36 37 38 38 38 39 39 40 40 40 39 40 39 39 38 37 37 38 41 41 41 41 42 43 44 46 48 49 50 51 51 52 52 52 53 53 54 54 55 54 47 48
35 36 35 35 35 36 36 37 37 37 39 39 39 39 40 39 40 39 39 39 39 40 40 41 41 42 44 47 49 50 50 50 51 51 52 52 53 54 54 54 54 53 51
34 34 33 34 34 35 35 35 36 37 37 38 38 39 37 41 41 41 40 39 40 40 40 41 40 41 42 44 47 48 48 51 49 50 51 51 53 53 54 54 54 53 52
33 33 33 33 34 34 35 35 35 36 36 36 37 38 35 39 41 41 42 42 41 41 41 41 41 41 41 42 44 47 47 47 51 50 51 51 52 54 54 53 53 52 51
32 32 33 33 34 34 34 35 35 35 36 36 37 38 39 39 40 41 42 43 43 43 43 42 41 41 42 43 44 44 46 47 51 53 52 52 52 53 54 53 52 51 50
33 34 34 34 36 35 36 36 36 35 36 37 37 38 39 40 40 41 41 42 43 44 44 43 43 43 43 44 44 44 45 48 49 55 54 54 53 51 53 51 51 50 49
35 34 35 36 37 37 38 40 38 38 38 38 38 39 40 40 41 42 43 43 44 44 45 46 45 44 44 44 43 44 42 39 49 48 55 54 53 53 52 51 50 49 48
34 33 33 34 35 35 36 36 38 39 41 41 41 41 41 42 42 43 43 44 44 45 45 46 46 46 45 45 45 41 37 37 44 42 53 54 52 52 50 50 49 48 46
Lifted_Index
-3 -4 -5 -6 -6 -5 -4 -4 -4 -4 -4 -4 -3 -4 -5 -5 -5 -5 -5 -5 -3 -2 -0 1 1 1 1 1 0 -0 -1 -1 -1 -1 -1 -1 -1 -1 -1 -0 0 1 2
-2 -3 -4 -5 -5 -5 -4 -4 -4 -4 -4 -4 -4 -4 -5 -5 -5 -5 -5 -5 -3 -1 1 2 2 2 2 2 1 1 -0 -1 -1 -1 -1 -1 -1 -1 -0 0 1 1 2
-0 -1 -2 -3 -4 -4 -4 -4 -4 -3 -3 -4 -4 -4 -4 -5 -5 -5 -5 -5 -3 -1 2 3 4 4 4 4 3 3 2 1 0 -0 -1 -1 -1 -0 0 1 1 1 2
1 0 -0 -1 -2 -2 -3 -3 -3 -3 -3 -4 -4 -4 -4 -4 -5 -5 -5 -4 -3 -1 2 4 5 5 5 4 4 5 4 3 2 1 0 -1 -1 -0 0 1 1 1 1
1 1 1 1 0 -1 -1 -1 -1 -2 -3 -3 -3 -3 -3 -4 -4 -5 -4 -3 -2 0 2 4 5 5 5 4 5 5 5 5 4 3 1 0 -0 -0 -0 0 1 1 0
3 2 2 2 1 1 -0 -0 1 1 -1 -2 -3 -3 -3 -3 -3 -3 -3 -3 -1 1 2 3 4 5 4 4 4 4 4 4 4 4 3 2 1 0 -0 -0 0 0 -0
4 4 3 3 2 2 1 1 2 2 1 0 -0 -1 -1 -2 -2 -2 -2 -1 -0 1 2 3 3 4 4 3 3 3 4 4 4 4 4 3 2 1 -0 -1 -0 -0 -0
5 4 4 4 4 3 3 2 2 2 3 2 2 1 0 -1 -1 -1 -1 -0 0 1 1 2 2 2 2 2 3 3 3 3 3 4 4 4 3 1 -0 -1 -1 -0 -0
5 5 4 4 4 4 4 4 3 3 4 3 3 2 2 1 -0 -1 -1 -0 -0 0 0 1 1 1 1 2 2 3 3 3 3 3 4 4 3 2 1 -1 -1 -0 -0
5 5 4 4 4 5 5 4 4 4 4 4 3 3 3 2 1 0 -0 -0 -0 0 0 0 0 0 1 1 2 3 3 3 3 3 4 4 4 2 1 -0 -0 -0 -0
5 5 5 4 4 4 4 4 4 4 4 4 4 4 3 3 2 2 2 1 1 1 1 0 0 0 1 1 2 2 2 2 3 4 4 4 4 3 2 1 0 0 0
5 6 6 5 5 4 5 5 5 4 4 4 4 4 4 4 3 4 4 3 3 2 2 1 1 1 1 2 2 2 2 2 3 4 4 4 4 3 2 1 1 1 0
5 6 6 6 6 5 5 5 5 5 4 4 4 4 4 4 4 4 5 5 4 4 4 3 3 3 3 3 3 3 3 3 3 4 4 4 4 3 2 1 1 1 1
6 6 6 6 6 6 6 6 6 6 5 5 4 4 4 4 4 5 5 5 6 6 6 6 5 5 4 4 4 4 4 3 3 3 4 4 4 3 3 2 1 1 1
8 8 7 7 7 7 7 7 7 7 7 7 7 6 6 6 5 6 6 6 7 8 8 8 7 6 6 5 5 5 5 4 3 3 3 4 4 3 3 3 2 1 1
10 10 9 9 9 8 8 8 8 9 9 9 9 8 8 8 7 7 7 7 7 8 8 8 8 7 7 7 6 6 6 5 4 4 3 4 4 3 3 3 2 2 2
12 12 12 11 11 10 10 9 9 9 9 10 10 10 9 9 9 8 8 7 7 7 7 7 7 7 7 7 6 6 6 6 5 4 4 4 4 3 3 3 3 2 2
14 14 13 13 12 12 11 11 11 10 10 10 11 10 10 10 9 9 8 8 7 6 6 6 7 7 7 7 6 6 5 5 5 5 4 4 4 3 3 3 3 2 2
15 14 14 13 13 12 12 12 11 11 11 11 11 11 10 10 10 10 9 8 7 6 5 6 6 7 7 7 6 5 5 5 5 4 4 4 4 3 3 3 3 2 2
14 14 13 13 12 12 11 11 11 11 10 10 10 10 11 10 10 10 10 9 8 6 5 5 6 6 6 6 6 5 5 4 4 4 4 4 3 3 3 3 3 2 2
13 13 13 13 12 11 11 10 10 10 9 9 10 10 11 10 10 10 10 9 8 7 6 5 5 5 5 5 5 5 5 4 4 4 4 3 3 3 3 3 3 3 3
13 13 12 12 11 10 10 9 9 8 8 8 9 10 10 10 10 9 9 8 8 7 6 5 4 4 4 5 5 5 5 4 3 3 3 3 2 2 3 3 4 4 3
12 12 11 11 10 9 8 7 7 6 6 7 7 8 8 8 8 8 8 8 7 7 6 6 5 4 4 5 5 5 5 4 3 2 2 2 2 2 3 3 4 4 4
11 10 10 9 9 7 6 5 5 5 5 5 5 6 6 6 6 7 7 7 7 7 7 6 5 5 4 5 5 5 5 5 4 3 2 2 2 3 3 4 4 4 4
10 10 9 8 8 7 6 5 4 4 4 4 4 4 5 5 5 5 6 6 6 6 6 6 5 5 4 4 4 4 5 5 4 3 2 2 3 3 4 4 4 4 3
10 10 9 8 7 7 6 5 5 5 4 4 4 4 4 4 5 5 5 5 5 5 5 5 4 4 4 4 4 4 4 4 5 4 3 3 3 4 4 4 4 4 3